Regional Weather Roundup
Issued by NWS

Home | Current Version | Previous Version | Graphics & Text | Print | Product List | Glossary On
Versions: 1 2 3 4 5 6 7 8 9 10 11 12 13 14 15 16 17 18 19 20 21 22 23 24 25 26 27 28 29 30 31 32 33 34 35 36 37 38 39 40 41 42 43 44 45 46 47 48 49
000
ASUS45 KSLC 300010
RWRUT

UTAH REGIONAL WEATHER ROUNDUP
NATIONAL WEATHER SERVICE SALT LAKE CITY UT
600 PM MDT FRI MAY 29 2015

UTZ001>011-023>025-300100-

NORTHERN UTAH

CITY           SKY/WX    TMP DP  RH WIND       PRES   REMARKS
BRIGHAM CITY   SUNNY     74  38  27 CALM      30.14S
HILL AFB       SUNNY     73  34  24 NW6       30.15F
LOGAN          SUNNY     72  37  28 NW3       30.14F
OGDEN          SUNNY     73  41  31 NW6       30.13F
PROVO AIRPORT  MOSUNNY   73  39  29 SW5       30.13F
SALT LAKE CITY MOSUNNY   75  41  29 N9        30.11F
VERNAL         MOSUNNY   68  39  34 SW3       30.20S
WENDOVER       SUNNY     75  43  31 E9        30.11S
HEBER CITY     SUNNY     73  36  25 W3        30.16F
WEST JORDAN    SUNNY     73  43  33 NW6       30.14F

$$

UTZ012>022-026-027-300100-

SOUTHERN/CENTRAL UTAH

CITY           SKY/WX    TMP DP  RH WIND       PRES   REMARKS
BLANDING       SUNNY     75  23  14 NW8G22    30.23S
BRYCE CANYON   PTSUNNY   65  35  33 N6G21     30.29F
CEDAR CITY     CLOUDY    66  40  38 S18G25    30.20R
DELTA          MOSUNNY   78  33  20 N6        30.12S
HANKSVILLE     SUNNY     81  32  17 SW3       30.11F
MILFORD        MOSUNNY   75  43  31 SW12      30.12F
MOAB/CYNLANDS  MOSUNNY   78  32  18 CALM      30.09F
PRICE          MOSUNNY   73  34  23 SE10      30.17F
ST GEORGE      CLEAR     93  34  12 W9G17     29.92F
KANAB          PTSUNNY   81  34  18 CALM      30.13F

$$

REGIONAL REPORTS     COLORADO/ARIZONA

CITY           SKY/WX    TMP DP  RH WIND       PRES   REMARKS
CRAIG, CO      MOSUNNY   61  42  49 E5        30.26F
GRAND JUNCTION SUNNY     72  40  31 VRB6      30.13F
RIFLE          MOSUNNY   71  37  28 NW12      30.18S
MONTROSE       SUNNY     71  35  26 N5        30.20S
CORTEZ         SUNNY     74  26  16 N14G24    30.15F
PAGE, AZ       MOSUNNY   83  35  18 N10       30.07S
GRAND CANYON   MOSUNNY   72  31  22 CALM      30.21S
KINGMAN        SUNNY     92  14   5 W10G22    29.97F
FLAGSTAFF      PTSUNNY   70  32  24 CALM      30.23F

$$

REGIONAL REPORTS    NEVADA/IDAHO/WYOMING

CITY           SKY/WX    TMP DP  RH WIND       PRES   REMARKS
LAS VEGAS, NV  MOSUNNY   98  25   7 SE5G17    29.81F HX  91
ELY            MOSUNNY   74  36  25 S10       30.14F
ELKO           SUNNY     76  35  22 W7        30.08F
POCATELLO, ID  MOSUNNY   74  41  30 NW7       30.14F
BURLEY         SUNNY     76  44  32 E12       30.07F
EVANSTON, WY   PTSUNNY   65  38  36 CALM      30.26F
ROCK SPRINGS   MOSUNNY   62  37  39 VRB5      30.28S
KEMMERER       MOSUNNY   63  32  31 CALM      30.28F

$$


USA.gov is the U.S. government's official web portal to all federal, state and local government web resources and services.